Tracking 31027 objects as of 19-Jul-2025
HD Live streaming from Space Station
objects crossing your sky now

STARLINK-5091

Track STARLINK-5091 now!
10-day predictions
STARLINK-5091 is classified as:


NORAD ID: 54873
Int'l Code: 2022-177BF
Perigee: 565.2 km
Apogee: 567.2 km
Inclination: 43.0 °
Period: 95.8 minutes
Semi major axis: 6937 km
RCS: Unknown
Launch date: December 28, 2022
Source: United States (US)
Launch site: AIR FORCE EASTERN TEST RANGE (AFETR)
Your satellite tracking list
TITAN 3C TRANSTAGE DEB
Track 1 satellite(s)




NASA's NSSDC Master Catalog

Two Line Element Set (TLE):
1 54873U 22177BF  25198.71387242 -.00000221  00000-0 -13013-5 0  9995
2 54873  43.0054 316.7003 0001434 268.9530  91.1148 15.02534035141761
Source of the keplerian elements: AFSPC